Station NFDF1 - 8720215 - Navy Fuel Depot, St Johns River, FL Image indicating link to RSS feed of recent meteorological observations for station NFDF1


Conditions at NFDF1 as of
(8:18 am EDT)
1218 GMT on 07/16/2024:
     

Click on the graph icon in the table below to see a time series plot of the last five days of that observation.

5-day plot - Wind Direction Wind Direction (WDIR):WSW ( 240 deg true )
5-day plot - Wind Speed Wind Speed (WSPD): 2.9 kts
5-day plot - Wind Gust Wind Gust (GST): 5.1 kts
5-day plot - Atmospheric Pressure Atmospheric Pressure (PRES):30.08 in
5-day plot - Air Temperature Air Temperature (ATMP): 81.3 °F
5-day plot - Dew Point Dew Point (DEWP): 81.1 °F
5-day plot - Visibility Visibility (VIS): 5.9 nmi
5-day plot - Heat Index Heat Index (HEAT): 91.8 °F
5-day plot - Wind Speed at 10 Meters Wind Speed at 10 meters (WSPD10M): 3.9 kts
5-day plot - Wind Speed at 20 Meters Wind Speed at 20 meters (WSPD20M): 3.9 kts
5-day plot -  Wind Speed, Wind Gust and Atmospheric Pressure Combined plot of Wind Speed, Gust, and Air Pressure
NOS Water Level Observation Network Water Level
Previous observations
TIME
(EDT)
5-day plot - Wind Direction
WDIR
 
5-day plot - Wind Speed
WSPD
kts
5-day plot - Wind Gust
GST
kts
5-day plot - Wave Height
WVHT
ft
5-day plot - Dominant Wave Period
DPD
sec
5-day plot - Average Wave Period
APD
sec
5-day plot - Mean Wave Direction
MWD
 
5-day plot - Atmospheric Pressure
PRES
in
5-day plot - Pressure Tendency
PTDY
in
5-day plot - Air Temperature
ATMP
°F
5-day plot - Water Temperature
WTMP
°F
5-day plot - Dew Point
DEWP
°F
5-day plot - Salinity
SAL
psu
5-day plot - Visibility
VIS
nmi
5-day plot - Tide (above MLLW)
TIDE
ft
2024-07-16 08:12 amWSW 2.9 5.1----30.08- 81.3- 81.1- 5.9-
2024-07-16 08:06 amWSW 4.1 5.1----30.07- 81.5- 81.3- 5.9-
2024-07-16 08:00 am SW 4.1 6.0----30.07+0.07 82.2- 82.0- 5.9-
2024-07-16 07:54 am SW 4.1 6.0----30.07- 82.2- 82.0- 5.9-
2024-07-16 07:48 amSSW 5.1 6.0----30.07- 81.3- 81.1- 5.9-
2024-07-16 07:42 am SW 4.1 6.0----30.06- 81.3- 81.1- 5.9-
2024-07-16 07:36 amSSW 4.1 8.0----30.06- 81.5- 81.3- 5.9-
2024-07-16 07:30 amSSW 5.1 7.0----30.06- 81.1- 81.0- 5.9-
2024-07-16 07:24 amSSW 5.1 7.0----30.05- 81.1- 81.0- 5.9-
2024-07-16 07:18 amSSW 5.1 6.0----30.05- 81.1- 81.0- 5.9-
2024-07-16 07:12 amSSW 5.1 8.0----30.05- 81.3- 81.1- 5.9-
2024-07-16 07:06 amSSW 5.1 7.0----30.05- 81.1- 81.0- 5.9-
2024-07-16 07:00 amSSW 4.1 5.1----30.04+0.04 81.0- 80.8- 5.9-
2024-07-16 06:54 am S 4.1 6.0----30.04- 80.8- 80.6- 5.9-
2024-07-16 06:48 am S 2.9 5.1----30.03- 80.6- 80.4- 5.9-
2024-07-16 06:42 am S 2.9 6.0----30.03- 80.6- 80.4- 5.9-
2024-07-16 06:36 amSSW 5.1 6.0----30.03- 80.1- 79.9- 5.9-
2024-07-16 06:30 am S 2.9 5.1----30.03- 79.3- 79.2- 5.9-
2024-07-16 06:24 amWSW 1.9 2.9----30.03- 78.8- 78.6- 5.9-
2024-07-16 06:18 am W 1.0 2.9----30.03- 78.8- 78.6- 5.9-
2024-07-16 06:12 amWSW 2.9 5.1----30.03- 79.2- 79.0- 5.9-
2024-07-16 06:06 amSSW 2.9 6.0----30.02- 80.4- 80.2- 5.9-
2024-07-16 06:00 am SW 2.9 6.0----30.02+0.00 79.9- 79.7- 5.9-
2024-07-16 05:54 am SW 2.9 6.0----30.02- 80.1- 79.9- 5.9-
2024-07-16 05:48 am SW 5.1 8.0----30.01----- 5.9-
2024-07-16 05:42 am SW 2.9 6.0----30.01----- 5.9-
2024-07-16 05:36 amSSW 5.1 7.0----30.01----- 5.9-
2024-07-16 05:30 amWSW 1.9 7.0----30.01- 79.3- 79.2- 5.9-
2024-07-16 05:24 am SW 6.0 8.0----30.01- 80.2- 80.1- 5.9-
2024-07-16 05:18 am SW 5.1 8.0----30.01- 80.6- 80.4- 5.9-
2024-07-16 05:12 am SW 5.1 8.0----30.01- 80.2- 80.1- 5.9-
2024-07-16 05:06 amSSW 5.1 7.0----30.01- 79.5- 79.3- 5.9-
2024-07-16 05:00 amWSW 1.9 2.9----30.00-0.04 78.4- 78.3- 5.9-
2024-07-16 04:54 am W 1.9 5.1----30.00- 78.6- 78.4- 5.9-
2024-07-16 04:48 amWSW 4.1 7.0----30.00- 79.0- 78.8- 5.9-
2024-07-16 04:42 amWSW 4.1 8.0----30.00- 79.3- 79.2- 5.9-
2024-07-16 04:36 am SW 4.1 6.0----30.00- 79.5- 79.3- 5.9-
2024-07-16 04:30 amWSW 4.1 6.0----30.00- 79.3- 79.2- 5.9-
2024-07-16 04:24 amWSW 2.9 5.1----30.00- 79.3- 79.2- 5.9-
2024-07-16 04:18 amWSW 5.1 7.0----30.00- 79.2- 79.0- 5.9-
2024-07-16 04:12 amWSW 4.1 7.0----30.00- 79.2- 79.0- 5.9-
2024-07-16 04:06 amWSW 4.1 7.0----30.00- 79.7- 79.5- 5.9-
2024-07-16 04:00 amWSW 5.1 8.9----30.01-0.04 80.1- 79.9- 5.9-
2024-07-16 03:54 am SW 6.0 9.9----30.01- 80.2- 80.1- 5.9-
2024-07-16 03:48 am SW 5.1 8.9----30.01----- 5.9-
2024-07-16 03:42 am SW 6.0 9.9----30.01----- 5.9-
2024-07-16 03:36 am SW 5.1 9.9----30.01----- 5.9-
2024-07-16 03:30 am SW 7.0 9.9----30.01- 79.9- 79.7- 5.9-
2024-07-16 03:24 amWSW 5.1 7.0----30.01- 79.5- 79.3- 5.9-
2024-07-16 03:18 am SW 5.1 7.0----30.02- 79.7- 79.5- 5.9-
2024-07-16 03:12 am SW 4.1 7.0----30.02- 79.5- 79.3- 5.9-
2024-07-16 03:06 am SW 2.9 7.0----30.02- 79.9- 79.7- 5.9-
2024-07-16 03:00 amWSW 5.1 8.9----30.03-0.03 80.1- 79.9- 5.9-
2024-07-16 02:54 amWSW 5.1 8.9----30.03- 80.4- 80.2- 5.9-
2024-07-16 02:48 am SW 8.0 9.9----30.03- 80.4- 80.2- 5.9-
2024-07-16 02:42 am SW 4.1 6.0----30.03- 80.1- 79.9- 5.9-
2024-07-16 02:36 am SW 4.1 7.0----30.03- 80.1- 79.9- 5.9-
2024-07-16 02:30 am SW 5.1 8.9----30.03- 80.6- 80.4- 5.9-
2024-07-16 02:24 am SW 7.0 8.9----30.03- 80.4- 80.2- 5.9-
2024-07-16 02:18 amWSW 5.1 7.0----30.03- 79.2- 79.0- 5.9-
2024-07-16 02:12 am SW 4.1 6.0----30.03- 79.2- 79.0- 5.9-
2024-07-16 02:06 amWSW 4.1 7.0----30.04- 78.6- 78.4- 5.9-
2024-07-16 02:00 amWSW 2.9 5.1----30.04+0.00 78.6- 78.4- 5.9-
2024-07-16 01:54 am W 2.9 6.0----30.04- 78.6- 78.4- 5.9-
2024-07-16 01:48 amWSW 4.1 6.0----30.04----- 5.9-
2024-07-16 01:42 am W 2.9 5.1----30.04----- 5.9-
2024-07-16 01:36 amWSW 2.9 7.0----30.04----- 5.9-
2024-07-16 01:30 amSSW 5.1 7.0----30.04- 81.3- 81.1- 5.9-
2024-07-16 01:24 amSSW 5.1 7.0----30.04- 81.3- 81.1- 5.9-
2024-07-16 01:18 am SW 6.0 8.9----30.04- 81.0- 80.8- 5.9-
2024-07-16 01:12 amSSW 5.1 7.0----30.04- 80.8- 80.6- 5.9-
2024-07-16 01:06 am SW 4.1 6.0----30.04- 79.9- 79.7- 5.9-
2024-07-16 01:00 am SW 2.9 6.0----30.05+0.00 79.5- 79.3- 5.9-
2024-07-16 12:54 amWSW 2.9 5.1----30.05- 78.8- 78.6- 5.9-
2024-07-16 12:48 amWSW 2.9 5.1----30.05- 78.8- 78.6- 5.9-
2024-07-16 12:42 am SW 2.9 6.0----30.05- 79.3- 79.2- 5.9-
2024-07-16 12:36 am SW 4.1 6.0----30.05- 79.7- 79.5- 5.9-
2024-07-16 12:30 amSSW 5.1 7.0----30.05- 79.3- 79.2- 5.9-
2024-07-16 12:24 am SW 2.9 5.1----30.05- 78.4- 78.3- 5.9-
2024-07-16 12:18 am SW 1.9 6.0----30.05- 78.3- 78.1- 5.9-
2024-07-16 12:12 amWSW 4.1 5.1----30.05- 77.9- 77.7- 5.9-
2024-07-16 12:06 amWSW 1.9 2.9----30.05- 77.9- 77.7- 5.9-
2024-07-16 12:00 am W 1.9 5.1----30.05+0.02 77.9- 77.7- 5.9-
2024-07-15 11:54 pmWSW 1.9 4.1----30.05- 78.1- 77.9- 5.9-
2024-07-15 11:48 pm W 1.9 2.9----30.05----- 5.9-
2024-07-15 11:42 pm W 1.9 4.1----30.05----- 5.9-
2024-07-15 11:36 pm W 2.9 5.1----30.05----- 5.9-
2024-07-15 11:30 pm W 4.1 6.0----30.04- 78.1- 77.9- 5.9-
2024-07-15 11:24 pmWSW 4.1 8.0----30.04- 78.4- 78.3- 5.9-
2024-07-15 11:18 pm SW 2.9 4.1----30.04- 77.7- 77.5- 5.9-
2024-07-15 11:12 pm W 1.0 2.9----30.04- 77.4- 77.2- 5.9-
2024-07-15 11:06 pm W 1.9 4.1----30.04- 77.2- 77.0- 5.9-
2024-07-15 11:00 pm W 1.0 2.9----30.04+0.02 77.4- 77.2- 5.9-
2024-07-15 10:54 pm W 1.9 4.1----30.04- 77.4- 77.2- 5.9-
2024-07-15 10:48 pm W 1.9 4.1----30.04- 77.4- 77.2- 5.9-
2024-07-15 10:42 pm W 1.9 4.1----30.04- 77.4- 77.2- 5.9-
2024-07-15 10:36 pmWNW 1.9 2.9----30.04- 77.5- 77.4- 5.9-
2024-07-15 10:30 pmWNW 1.0 4.1----30.04- 77.7- 77.5- 5.9-
2024-07-15 10:24 pm W 1.9 4.1----30.04- 77.7- 77.5- 5.9-
2024-07-15 10:18 pm W 1.9 4.1----30.04- 77.9- 77.7- 5.9-
2024-07-15 10:12 pm W 1.9 2.9----30.04- 77.9- 77.7- 5.9-
2024-07-15 10:06 pmWSW 2.9 5.1----30.04- 78.1- 77.9- 5.9-
2024-07-15 10:00 pmWSW 4.1 6.0----30.04+0.00 77.9- 77.7- 5.9-
2024-07-15 09:54 pm SW 2.9 5.1----30.04- 78.3- 78.1- 5.9-
2024-07-15 09:48 pmWSW 2.9 2.9----30.04- 78.3- 78.1- 5.9-
2024-07-15 09:42 pmWSW 1.9 2.9----30.04- 77.7- 77.5- 5.9-
2024-07-15 09:36 pm W 1.0 1.9----30.04- 77.9- 77.7- 5.9-
2024-07-15 09:30 pm- 0.0 1.9----30.04- 77.9- 77.7- 5.9-
2024-07-15 09:24 pm W 1.0 1.9----30.04- 78.1- 77.9- 5.9-
2024-07-15 09:18 pm NW 1.0 2.9----30.04- 78.1- 77.9- 5.9-
2024-07-15 09:12 pm- 0.0 1.0----30.04- 78.3- 78.1- 5.9-
2024-07-15 09:06 pm- 0.0 1.9----30.04- 78.4- 78.3- 5.9-
2024-07-15 09:00 pm- 0.0 1.9----30.03+0.00 79.3- 79.2- 5.9-
2024-07-15 08:54 pm E 1.9 4.1----30.03- 80.1- 79.9- 5.9-
2024-07-15 08:48 pm S 2.9 5.1----30.02- 80.2- 80.1- 5.9-
2024-07-15 08:42 pm S 4.1 5.1----30.02- 79.9- 79.7- 5.9-
2024-07-15 08:36 pmSSW 2.9 2.9----30.01- 79.7- 79.5- 5.9-
2024-07-15 08:30 pm S 2.9 5.1----30.01- 79.2- 79.0- 5.9-
2024-07-15 08:24 pm S 4.1 6.0----30.02- 78.8- 78.6- 5.9-
2024-07-15 08:18 pmSSW 2.9 5.1----30.02- 78.4- 78.3- 5.9-
2024-07-15 08:12 pmSSW 4.1 5.1----30.02- 78.3- 78.1- 5.9-
2024-07-15 08:06 pm S 2.9 4.1----30.02- 77.5- 77.4- 5.9-
2024-07-15 08:00 pm- 0.0 1.0----30.02-0.02---- 5.9-
2024-07-15 07:54 pm- 0.0 2.9----30.02----- 5.9-
2024-07-15 07:48 pm S 1.9 2.9----30.02----- 5.9-
2024-07-15 07:42 pm- 0.0 2.9----30.03----- 5.9-
2024-07-15 07:36 pm W 1.9 2.9----30.03----- 5.9-
2024-07-15 07:30 pm- 0.0 1.9----30.03----- 5.9-
2024-07-15 07:24 pm W 1.0 2.9----30.04----- 5.9-
2024-07-15 07:18 pmWNW 1.9 5.1----30.04- 75.2- 75.0- 5.9-
2024-07-15 07:12 pmWSW 1.0 5.1----30.04- 75.4- 75.2- 5.9-
2024-07-15 07:06 pm- 0.0 2.9----30.04- 75.6- 75.4- 5.9-
2024-07-15 07:00 pm- 0.0 4.1----30.03+0.04 76.1- 75.9---
2024-07-15 06:54 pm W 1.9 6.0----30.04- 75.6- 75.4---
2024-07-15 06:48 pmSSE 1.0 2.9----30.04----- 5.9-
2024-07-15 06:42 pmNNW 1.0 4.1----30.04----- 5.9-
2024-07-15 06:36 pmNNW 1.0 4.1----30.03----- 5.9-
2024-07-15 06:30 pm- 0.0 1.9----30.03- 75.7- 75.6- 5.9-
2024-07-15 06:24 pm N 1.9 6.0----30.03- 75.7- 75.6- 5.9-
2024-07-15 06:18 pm-------30.03- 75.9- 75.7- 5.9-
2024-07-15 06:12 pm-------30.03- 76.1- 75.9- 5.9-
2024-07-15 06:06 pm-------30.03- 76.3- 76.1- 5.9-
2024-07-15 06:00 pm N 1.9 5.1----30.03+0.01 76.6- 76.5- 5.9-
2024-07-15 05:54 pmNNW 1.9 2.9----30.03- 76.1- 75.9- 5.9-
2024-07-15 05:48 pmNNW 1.9 2.9------ 75.6- 75.4- 5.9-
2024-07-15 05:42 pmNNW 1.9 2.9------ 76.1- 75.9- 5.9-
2024-07-15 05:36 pm- 0.0 2.9------ 75.7- 75.6- 5.9-
2024-07-15 05:30 pm W 1.9 2.9----30.02- 75.4- 75.2- 5.9-
2024-07-15 05:24 pmWSW 1.9 4.1----30.02- 75.4- 75.2- 5.9-
2024-07-15 05:18 pm SW 1.9 4.1----30.02- 75.2- 75.0- 5.9-
2024-07-15 05:12 pm W 1.9 2.9----30.02- 74.7- 74.5- 5.9-
2024-07-15 05:06 pmWSW 1.0 5.1----30.02- 74.5- 74.3- 5.9-
2024-07-15 05:00 pmWNW 1.0 5.1----30.03-0.01---- 5.9-
2024-07-15 04:54 pm- 0.0 5.1----30.03----- 5.9-
2024-07-15 04:48 pmNNW 1.9 5.1----30.03- 74.7- 74.5- 5.9-
2024-07-15 04:42 pmWSW 2.9 8.9----30.03- 75.7- 75.6- 0.6-
2024-07-15 04:36 pm W 5.1 25.1----30.02- 76.3- 76.3- 0.6-
2024-07-15 04:30 pmWSW 13.0 20.0----30.02- 80.4- 79.5- 0.5-
2024-07-15 04:24 pmWSW 8.0 15.9----30.02- 84.0- 76.6- 5.9-
2024-07-15 04:18 pmSSW 11.1 19.0----30.02- 86.2- 84.4- 5.9-
2024-07-15 04:12 pm SE 11.1 14.0----30.00- 88.0- 80.8- 5.9-
2024-07-15 04:06 pm SE 9.9 14.0----30.00- 89.4- 80.1- 5.9-
2024-07-15 04:00 pmESE 9.9 14.0----30.00-0.07 90.7- 80.2- 5.9-
2024-07-15 03:54 pm E 9.9 14.0----29.99- 90.3- 80.8- 5.9-
2024-07-15 03:48 pmESE 11.1 13.0----30.00----- 5.9-
2024-07-15 03:42 pmESE 8.9 13.0----30.00----- 5.9-
2024-07-15 03:36 pmESE 11.1 13.0----30.00----- 5.9-
2024-07-15 03:30 pm E 9.9 12.0----30.00- 90.3- 81.3- 5.9-
2024-07-15 03:24 pmESE 12.0 13.0----30.01- 90.3- 82.0- 5.9-
2024-07-15 03:18 pmESE 9.9 13.0----30.00- 90.7- 81.0- 5.9-
2024-07-15 03:12 pm E 7.0 9.9----30.01- 91.2- 79.9- 5.9-
2024-07-15 03:06 pm E 6.0 8.0----30.01- 91.4- 78.6- 5.9-
2024-07-15 03:00 pm NE 2.9 5.1----30.02-0.07 92.8- 75.0- 5.9-
2024-07-15 02:54 pmENE 4.1 5.1----30.02- 92.1- 75.2- 5.9-
2024-07-15 02:48 pmENE 5.1 5.1----30.02- 91.8- 76.1- 5.9-
2024-07-15 02:42 pm E 2.9 4.1----30.03- 91.6- 76.6- 5.9-
2024-07-15 02:36 pmENE 2.9 4.1----30.03- 91.9- 76.8- 5.9-
2024-07-15 02:30 pmENE 2.9 5.1----30.03- 92.1- 75.9- 5.9-
2024-07-15 02:24 pm E 1.9 4.1----30.03- 92.3- 76.3- 5.9-
2024-07-15 02:18 pm SE 4.1 5.1----30.04- 91.2- 76.1- 5.9-
2024-07-15 02:12 pmENE 1.9 2.9----30.04- 91.6- 76.8- 5.9-
2024-07-15 02:06 pmESE 2.9 4.1----30.04- 92.1- 75.7- 5.9-
2024-07-15 02:00 pmSSE 4.1 6.0----30.05-0.06 92.3- 76.8- 5.9-
2024-07-15 01:54 pmSSW 2.9 5.1----30.05- 92.5- 76.6- 5.9-
2024-07-15 01:48 pm S 1.0 4.1----30.05- 92.8- 77.2- 5.9-
2024-07-15 01:42 pmSSW 1.9 2.9----30.06- 91.8- 76.6- 5.9-
2024-07-15 01:36 pmSSW 2.9 4.1----30.06- 92.1- 76.8- 5.9-
2024-07-15 01:30 pm S 1.9 4.1----30.06- 92.1- 77.4- 5.9-
2024-07-15 01:24 pm SE 2.9 5.1----30.06- 91.2- 78.1- 5.9-
2024-07-15 01:18 pm- 0.0 1.9----30.06- 91.4- 78.3- 5.9-
2024-07-15 01:12 pm SE 1.9 4.1----30.06- 90.3- 78.8- 5.9-
2024-07-15 01:06 pm SE 2.9 4.1----30.07- 90.5- 78.8- 5.9-
2024-07-15 01:00 pm S 1.9 4.1----30.07-0.04 90.9- 78.8- 5.9-
2024-07-15 12:54 pm S 4.1 5.1----30.07- 90.3- 79.7- 5.9-
2024-07-15 12:48 pm SW 1.9 4.1----30.08- 90.7- 79.7- 5.9-
2024-07-15 12:42 pmSSW 1.0 2.9----30.08- 91.2- 80.2- 5.9-
2024-07-15 12:36 pm S 1.9 2.9----30.08- 90.7- 82.8- 5.9-
2024-07-15 12:30 pmSSE 2.9 4.1----30.09- 89.6- 81.5- 5.9-
2024-07-15 12:24 pmSSW 2.9 4.1----30.09- 89.6- 82.0- 5.9-
2024-07-15 12:18 pmSSE 1.9 4.1----30.09- 89.2- 82.6- 5.9-
2024-07-15 12:12 pm SE 4.1 5.1----30.09- 89.1- 82.4- 5.9-
2024-07-15 12:06 pm S 1.9 2.9----30.09- 90.0- 82.2- 5.9-
2024-07-15 12:00 pm S 2.9 6.0----30.09-0.02 89.1- 81.7- 5.9-
2024-07-15 11:54 amSSW 5.1 6.0----30.09- 88.7- 82.6- 5.9-
2024-07-15 11:48 am SW 1.0 5.1----30.09- 90.0- 83.7- 5.9-
2024-07-15 11:42 am SW 4.1 6.0----30.09- 88.5- 82.8- 5.9-
2024-07-15 11:36 amWSW 2.9 6.0----30.10- 88.5- 83.8- 5.9-
2024-07-15 11:30 amWSW 5.1 8.9----30.10- 88.9- 83.7- 5.9-
2024-07-15 11:24 am SW 4.1 8.0----30.10- 88.9- 84.2- 5.9-
2024-07-15 11:18 amWSW 5.1 8.0----30.10- 89.1- 83.7- 5.9-
2024-07-15 11:12 am W 4.1 8.9----30.11- 88.7- 83.1- 5.9-
2024-07-15 11:06 amWSW 2.9 6.0----30.11- 89.2- 84.0- 5.9-
2024-07-15 11:00 am W 2.9 7.0----30.11+0.01 89.1- 83.3- 5.9-
2024-07-15 10:54 amWSW 4.1 7.0----30.11- 88.7- 84.6- 5.9-
2024-07-15 10:48 amWSW 5.1 7.0----30.11- 88.7- 86.0- 5.9-
2024-07-15 10:42 amWSW 6.0 9.9----30.10- 88.2- 86.2- 5.9-
2024-07-15 10:36 am SW 5.1 7.0----30.10- 87.6- 87.6- 5.9-
2024-07-15 10:30 amWSW 4.1 7.0----30.10- 87.6- 87.6- 5.9-
2024-07-15 10:24 am SW 5.1 7.0----30.10- 87.1- 87.1- 5.9-
2024-07-15 10:18 amWSW 5.1 7.0----30.10- 87.4- 87.4- 5.9-
2024-07-15 10:12 am W 2.9 8.9----30.10- 87.3- 87.3- 5.9-
2024-07-15 10:06 amWSW 6.0 8.9----30.10- 86.9- 86.7- 5.9-
2024-07-15 10:00 amWSW 4.1 6.0----30.11+0.03 86.7- 86.5- 5.9-
2024-07-15 09:54 amWSW 4.1 7.0----30.11- 86.4- 86.2- 5.9-
2024-07-15 09:48 amWSW 2.9 8.9----30.11- 86.4- 86.2- 5.9-
2024-07-15 09:42 amWSW 5.1 8.0----30.11- 85.6- 85.5- 5.9-
2024-07-15 09:36 amWSW 6.0 8.0----30.11- 85.3- 85.1- 5.9-
2024-07-15 09:30 amWSW 5.1 8.0----30.11- 85.5- 85.3- 5.9-
2024-07-15 09:24 amWSW 4.1 6.0----30.11- 85.3- 85.1- 5.9-
2024-07-15 09:18 amWSW 4.1 8.9----30.11- 85.3- 85.1- 5.9-
2024-07-15 09:12 amWSW 5.1 8.0----30.11- 84.7- 84.6- 5.9-
2024-07-15 09:06 am SW 5.1 8.0----30.11- 84.4- 84.2- 5.9-
2024-07-15 09:00 amWSW 5.1 8.0----30.11+0.04 84.2- 84.0- 5.9-
2024-07-15 08:54 amWSW 6.0 8.9----30.11- 84.0- 83.8- 5.9-